Location: *
(33.8649°S, 62.1526°E)
Time: 03:29:00
(UTC+00:00)

Cosmos 2112 Rocket - Pass Details

Date: 17 January 2021
Orbit: 757 x 786 km, 74.1° (Epoch: 27 February)

Event Time Altitude Azimuth Distance (km) Brightness Sun altitude
Exits shadow 17:50:39 61° 295° (WNW) 864 4.2 -27.2°
Maximum altitude 17:51:18 68° 252° (WSW) 824 4.2 -27.3°
Drops below altitude 10° 17:56:32 10° 169° (SSE) 2,320 7.0 -27.9°
Sets 17:58:57 0° 166° (SSE) 3,256 7.8 -28.2°
